Location: Unspecified
(0.0000°N, 0.0000°E)
Time: 17:58:34
(UTC+00:00)

Hubble Space Telescope - Visible Passes

Search period start: 12 October 2024 00:00
Search period end: 22 October 2024 00:00
Orbit: 503 x 507 km, 28.5° (Epoch: 12 October)

Date Brightness Start Highest point End Pass type
(mag) Time Alt. Az. Time Alt. Az. Time Alt. Az.
12 Oct 1.9 04:23:50 27° N 04:25:00 33° NNE 04:28:34 10° E visible
13 Oct 1.8 04:03:58 38° NE 04:03:58 38° NE 04:07:14 10° E visible
14 Oct 2.9 03:44:02 24° E 03:44:02 24° E 03:45:49 10° ESE visible
14 Oct 2.1 05:19:12 10° W 05:22:24 24° SSW 05:25:38 10° SSE visible
15 Oct 3.9 03:24:02 12° ESE 03:24:02 12° ESE 03:24:21 10° ESE visible
15 Oct 2.3 04:58:42 14° WSW 05:00:53 20° SSW 05:03:53 10° SSE visible
16 Oct 2.4 04:38:37 17° SW 04:39:20 18° SSW 04:42:03 10° SSE visible
17 Oct 2.8 04:18:26 15° SSW 04:18:26 15° SSW 04:20:09 10° S visible
